#timestamp,LO_Frequency,Hit,StdDev 
1514998815.1,286047007.7,P
1514998816.0,286047007.7,P
1514998835.8,286047009.0,Y
1514998855.6,286046997.7,P
1514998875.5,286046992.9,N
1514998895.3,286046990.4,N
1514998915.1,286046989.9,N
1514998935.9,286046982.3,N
1514998955.7,286046981.4,N
1514998975.5,286046980.6,N
1514998995.4,286046978.0,N
1514999015.2,286046975.2,N
1514999035.0,286046973.0,N
1514999035.9,286046973.0,N
1514999055.8,286046969.6,Y
1514999075.6,286046986.5,P
1514999095.4,286046985.2,P
1514999115.3,286046979.6,P
1514999135.1,286046977.9,Y
1514999136.0,286046977.9,P
1514999155.8,286046993.7,N
1514999175.7,286046991.2,N
1514999195.5,286046990.8,N
1514999215.3,286046987.9,N
1514999235.2,286046984.2,Y
1514999255.9,286046994.6,P
1514999275.7,286046996.0,N
1514999295.6,286046998.2,N
1514999315.4,286046998.4,N
1514999335.2,286046997.5,N
1514999355.0,286046996.4,N
1514999355.9,286046996.4,N
1514999375.8,286046997.3,N
1514999395.6,286046997.9,N
1514999415.4,286046999.2,N
1514999435.3,286046997.6,N
1514999455.1,286046999.3,N
1514999475.8,286046999.0,N
1514999495.7,286046996.5,N
1514999515.5,286046997.3,N
1514999535.3,286046996.7,N
1514999555.2,286046997.7,N
1514999575.9,286046995.4,N
1514999595.7,286046993.7,N
1514999615.6,286046994.5,N
1514999635.4,286046991.1,Y
1514999655.2,286046991.8,P
1514999675.1,286046993.8,N
1514999676.0,286046993.8,P
1514999695.8,286046997.8,N
1514999715.6,286046994.1,N
1514999735.4,286046994.6,N
1514999755.3,286046991.2,Y
1514999775.1,286046995.7,P
1514999795.9,286047000.8,N
1514999815.7,286047004.4,N
1514999835.5,286047005.8,N
1514999855.3,286047001.9,N
1514999875.2,286047003.2,N
1514999895.9,286047001.1,N
1514999915.7,286047004.2,N
1514999935.6,286047003.6,N
1514999955.4,286046999.9,N
1514999975.2,286046996.9,N
1514999995.1,286046995.8,N
1514999996.0,286046995.8,N
1515000015.8,286046996.2,N
1515000035.6,286046995.1,N
1515000055.5,286046993.8,N
1515000075.3,286046994.2,N
1515000095.1,286046990.5,N
1515000115.8,286046991.0,N
1515000135.7,286046990.9,N
1515000155.5,286046989.0,N
1515000175.3,286046988.3,N
1515000195.2,286046987.5,N
1515000215.9,286046988.2,N
1515000235.7,286046989.6,N
1515000255.6,286046983.7,N
1515000275.4,286046985.1,N
1515000295.2,286046984.5,N
1515000315.1,286046985.9,N
1515000316.0,286046985.9,N
1515000335.8,286046986.3,N
1515000355.6,286046987.3,N
1515000375.5,286046992.1,N
1515000395.3,286046990.9,N
1515000415.1,286046985.9,N
1515000435.8,286046985.5,N
1515000455.7,286046987.9,N
1515000475.5,286046988.3,N
1515000495.3,286046987.4,N
1515000515.2,286046986.9,Y
1515000535.0,286046999.3,P
1515000535.9,286046999.3,N
1515000555.7,286046993.3,N
1515000575.6,286046993.6,N
1515000595.4,286046993.7,N
1515000615.2,286046996.2,N
1515000635.1,286046995.9,N
1515000636.0,286046995.9,N
1515000655.8,286046995.8,N
1515000675.6,286046992.0,Y
1515000695.5,286046997.5,P
1515000715.3,286046996.5,P
1515000735.1,286047004.4,P
1515000755.9,286047003.9,N
1515000775.7,286047001.6,N
1515000795.5,286047002.4,N
1515000815.4,286046999.8,N
1515000835.2,286046999.7,N
1515000855.0,286047001.7,N
1515000855.9,286047001.7,N
1515000875.8,286046999.5,N
1515000895.6,286046999.7,N
1515000915.4,286046998.7,N
1515000935.2,286046999.4,N
1515000955.1,286046999.6,N
1515000956.0,286046999.6,N
1515000975.8,286046998.9,N
1515000995.6,286046998.2,N
1515001015.5,286046997.2,N
1515001035.3,286046995.6,N
1515001055.1,286047002.7,N
1515001075.9,286046998.4,N
1515001095.7,286047000.8,N
1515001115.5,286046999.4,N
1515001135.4,286046998.0,N
1515001155.2,286046999.2,N
1515001175.0,286047002.3,N
1515001175.9,286047002.3,N
1515001195.8,286047000.3,N
1515001215.6,286047002.0,N
1515001235.4,286047002.6,N
1515001255.2,286047004.0,N
1515001275.1,286047005.3,N
1515001276.0,286047005.3,N
1515001295.8,286047006.3,N
1515001315.7,286047008.7,Y
1515001335.5,286047006.7,P
1515001355.3,286047004.8,N
1515001375.1,286047005.3,N
1515001395.9,286047003.1,N
1515001415.7,286047007.6,Y
1515001435.5,286047003.4,P
1515001455.4,286047001.6,P
1515001475.2,286047006.0,P
1515001495.0,286047006.7,Y
1515001495.9,286047006.7,P
1515001515.8,286047002.3,N
1515001535.6,286047004.1,N
1515001555.5,286047005.8,Y
1515001575.3,286046999.4,P
1515001595.1,286046997.5,N
1515001615.8,286047002.4,N
1515001635.7,286047001.6,N
1515001655.5,286047006.1,N
1515001675.3,286047003.0,N
1515001695.2,286047007.4,N
1515001715.9,286047007.1,N
1515001735.7,286047002.9,N
1515001755.6,286047008.6,N
1515001775.4,286047006.4,N
1515001795.2,286047012.1,Y
1515001815.1,286047007.7,P
1515001816.0,286047007.7,P
1515001835.8,286047013.3,P
1515001855.6,286047015.2,Y
1515001875.5,286047009.2,P
1515001895.3,286047006.1,P
1515001915.1,286047003.2,N
1515001935.9,286047001.8,N
1515001955.7,286047004.3,N
1515001975.5,286047003.8,N
1515001995.4,286047002.5,N
1515002015.2,286047001.0,N
1515002035.0,286047000.2,N
1515002035.9,286047000.2,N
1515002055.7,286046999.7,N
1515002075.6,286046999.0,N
1515002095.4,286046996.8,N
1515002115.2,286046997.2,N
1515002135.1,286047000.5,N
1515002136.0,286047000.5,N
1515002155.8,286046997.2,N
1515002175.6,286046997.6,N
1515002195.5,286046995.3,N
1515002215.3,286046998.8,N
1515002235.1,286046999.6,N
1515002255.9,286046994.0,N
1515002275.7,286046994.0,N
1515002295.5,286046993.6,N
1515002315.3,286046995.1,N
1515002335.2,286046999.3,N
1515002355.0,286047006.0,N
1515002355.9,286047006.0,N
1515002375.7,286047004.4,N
1515002395.6,286047001.7,N
